Time,TemperatureF,DewpointF,PressureIn,WindDirection,WindDirectionDegrees,WindSpeedMPH,WindSpeedGustMPH,Humidity,HourlyPrecipIn,Conditions,Clouds,dailyrainin,SoftwareType,DateUTC
2013-07-27 00:02:00,61.0,38.8,23.44,East,90,1.0,2.0,44,0.00,,,0.00,meteohub,2013-07-27 06:02:00,
2013-07-27 00:07:00,61.0,38.8,23.44,East,90,1.0,1.0,44,0.00,,,0.00,meteohub,2013-07-27 06:07:00,
2013-07-27 00:12:00,60.6,40.3,23.44,SE,135,0.0,1.0,47,0.00,,,0.00,meteohub,2013-07-27 06:12:00,
2013-07-27 00:17:00,60.4,40.1,23.44,SE,135,1.0,1.0,47,0.00,,,0.00,meteohub,2013-07-27 06:17:00,
2013-07-27 00:23:00,60.1,40.8,23.44,North,0,2.0,2.0,49,0.00,,,0.00,meteohub,2013-07-27 06:23:00,
2013-07-27 00:28:00,59.9,40.6,23.44,NE,45,0.0,2.0,49,0.00,,,0.00,meteohub,2013-07-27 06:28:00,
2013-07-27 00:33:00,59.7,39.9,23.44,SE,135,1.0,2.0,48,0.00,,,0.00,meteohub,2013-07-27 06:33:00,
2013-07-27 00:38:00,59.5,39.4,23.43,NE,45,0.0,2.0,47,0.00,,,0.00,meteohub,2013-07-27 06:38:00,
2013-07-27 00:43:00,59.4,40.3,23.44,East,90,0.0,2.0,49,0.00,,,0.00,meteohub,2013-07-27 06:43:00,
2013-07-27 00:49:00,59.4,40.6,23.43,East,90,0.0,2.0,50,0.00,,,0.00,meteohub,2013-07-27 06:49:00,
2013-07-27 00:54:00,59.0,41.4,23.43,SE,135,0.0,1.0,52,0.00,,,0.00,meteohub,2013-07-27 06:54:00,
2013-07-27 00:59:00,58.8,40.8,23.43,NE,45,0.0,2.0,51,0.00,,,0.00,meteohub,2013-07-27 06:59:00,
2013-07-27 01:04:00,58.6,41.5,23.43,SE,135,0.0,2.0,53,0.00,,,0.00,meteohub,2013-07-27 07:04:00,
2013-07-27 01:10:00,58.5,39.9,23.43,North,0,0.0,2.0,50,0.00,,,0.00,meteohub,2013-07-27 07:10:00,
2013-07-27 01:15:00,58.3,38.7,23.43,East,90,0.0,2.0,48,0.00,,,0.00,meteohub,2013-07-27 07:15:00,
2013-07-27 01:20:00,58.3,40.3,23.43,NE,45,0.0,2.0,51,0.00,,,0.00,meteohub,2013-07-27 07:20:00,
2013-07-27 01:25:00,58.1,40.1,23.43,SE,135,0.0,2.0,51,0.00,,,0.00,meteohub,2013-07-27 07:25:00,
2013-07-27 01:30:00,57.9,40.8,23.43,East,90,0.0,1.0,53,0.00,,,0.00,meteohub,2013-07-27 07:30:00,
2013-07-27 01:35:00,57.7,40.3,23.42,East,90,1.0,1.0,52,0.00,,,0.00,meteohub,2013-07-27 07:35:00,
2013-07-27 01:40:00,57.6,41.0,23.43,East,90,0.0,1.0,54,0.00,,,0.00,meteohub,2013-07-27 07:40:00,
2013-07-27 01:45:00,57.4,40.8,23.43,East,90,0.0,1.0,54,0.00,,,0.00,meteohub,2013-07-27 07:45:00,
2013-07-27 01:51:00,57.4,40.8,23.43,NW,315,1.0,1.0,54,0.00,,,0.00,meteohub,2013-07-27 07:51:00,
2013-07-27 01:56:00,58.3,36.5,23.42,East,90,2.0,2.0,44,0.00,,,0.00,meteohub,2013-07-27 07:56:00,
2013-07-27 02:01:00,59.9,35.6,23.42,NW,315,3.0,4.0,40,0.00,,,0.00,meteohub,2013-07-27 08:01:00,
2013-07-27 02:06:00,59.9,35.6,23.43,NW,315,3.0,4.0,40,0.00,,,0.00,meteohub,2013-07-27 08:06:00,
2013-07-27 02:11:00,65.3,34.7,23.42,SE,135,4.0,4.0,32,0.00,,,0.00,meteohub,2013-07-27 08:11:00,
2013-07-27 02:16:00,67.1,32.9,23.42,SE,135,2.0,4.0,28,0.00,,,0.00,meteohub,2013-07-27 08:16:00,
2013-07-27 02:22:00,68.0,32.7,23.42,SE,135,3.0,4.0,27,0.00,,,0.00,meteohub,2013-07-27 08:22:00,
2013-07-27 02:27:00,68.4,32.2,23.42,SE,135,2.0,4.0,26,0.00,,,0.00,meteohub,2013-07-27 08:27:00,
2013-07-27 02:32:00,68.5,34.2,23.42,SE,135,2.0,4.0,28,0.00,,,0.00,meteohub,2013-07-27 08:32:00,
2013-07-27 02:37:00,67.8,34.3,23.42,SE,135,2.0,4.0,29,0.00,,,0.00,meteohub,2013-07-27 08:37:00,
2013-07-27 02:42:00,66.9,36.1,23.42,North,0,0.0,4.0,32,0.00,,,0.00,meteohub,2013-07-27 08:42:00,
2013-07-27 02:47:00,66.0,37.6,23.42,South,180,0.0,3.0,35,0.00,,,0.00,meteohub,2013-07-27 08:47:00,
2013-07-27 02:52:00,65.7,37.2,23.42,North,0,2.0,2.0,35,0.00,,,0.00,meteohub,2013-07-27 08:52:00,
2013-07-27 02:57:00,65.3,36.9,23.42,NW,315,1.0,2.0,35,0.00,,,0.00,meteohub,2013-07-27 08:57:00,
2013-07-27 03:02:00,64.8,36.5,23.42,North,0,0.0,2.0,35,0.00,,,0.00,meteohub,2013-07-27 09:02:00,
2013-07-27 03:07:00,63.9,34.9,23.42,North,0,0.0,2.0,34,0.00,,,0.00,meteohub,2013-07-27 09:07:00,
2013-07-27 03:12:00,63.5,35.4,23.42,North,0,0.0,2.0,35,0.00,,,0.00,meteohub,2013-07-27 09:12:00,
2013-07-27 03:17:00,63.0,35.6,23.43,North,0,0.0,1.0,36,0.00,,,0.00,meteohub,2013-07-27 09:17:00,
2013-07-27 03:23:00,62.1,36.1,23.42,NE,45,1.0,1.0,38,0.00,,,0.00,meteohub,2013-07-27 09:23:00,
2013-07-27 03:28:00,61.3,36.9,23.42,South,180,0.0,2.0,40,0.00,,,0.00,meteohub,2013-07-27 09:28:00,
2013-07-27 03:33:00,60.6,37.4,23.42,South,180,0.0,2.0,42,0.00,,,0.00,meteohub,2013-07-27 09:33:00,
2013-07-27 03:38:00,60.3,37.8,23.42,South,180,0.0,2.0,43,0.00,,,0.00,meteohub,2013-07-27 09:38:00,
2013-07-27 03:43:00,59.7,37.2,23.43,SE,135,2.0,2.0,43,0.00,,,0.00,meteohub,2013-07-27 09:43:00,
2013-07-27 03:48:00,59.4,37.9,23.42,South,180,1.0,2.0,45,0.00,,,0.00,meteohub,2013-07-27 09:48:00,
2013-07-27 03:53:00,59.4,37.9,23.42,South,180,0.0,2.0,45,0.00,,,0.00,meteohub,2013-07-27 09:53:00,
2013-07-27 03:59:00,59.4,37.9,23.42,South,180,0.0,2.0,45,0.00,,,0.00,meteohub,2013-07-27 09:59:00,
2013-07-27 04:04:00,59.4,37.9,23.42,South,180,0.0,2.0,45,0.00,,,0.00,meteohub,2013-07-27 10:04:00,
2013-07-27 04:09:00,59.2,38.5,23.43,North,0,0.0,0.0,46,0.00,,,0.00,meteohub,2013-07-27 10:09:00,
2013-07-27 04:14:00,59.2,39.0,23.43,North,0,0.0,0.0,47,0.00,,,0.00,meteohub,2013-07-27 10:14:00,
2013-07-27 04:19:00,59.0,38.8,23.43,SE,135,1.0,0.0,47,0.00,,,0.00,meteohub,2013-07-27 10:19:00,
2013-07-27 04:24:00,58.6,39.6,23.43,NW,315,0.0,0.0,49,0.00,,,0.00,meteohub,2013-07-27 10:24:00,
2013-07-27 04:30:00,58.5,39.9,23.43,NW,315,0.0,2.0,50,0.00,,,0.00,meteohub,2013-07-27 10:30:00,
2013-07-27 04:35:00,58.3,40.3,23.42,South,180,0.0,2.0,51,0.00,,,0.00,meteohub,2013-07-27 10:35:00,
2013-07-27 04:40:00,57.9,40.8,23.42,SE,135,2.0,2.0,53,0.00,,,0.00,meteohub,2013-07-27 10:40:00,
2013-07-27 04:45:00,57.9,40.8,23.42,South,180,0.0,0.0,53,0.00,,,0.00,meteohub,2013-07-27 10:45:00,
2013-07-27 04:50:00,57.9,41.4,23.42,South,180,1.0,2.0,54,0.00,,,0.00,meteohub,2013-07-27 10:50:00,
2013-07-27 04:55:00,57.9,41.4,23.42,SE,135,1.0,2.0,54,0.00,,,0.00,meteohub,2013-07-27 10:55:00,
2013-07-27 05:00:00,57.9,41.9,23.43,SE,135,0.0,2.0,55,0.00,,,0.00,meteohub,2013-07-27 11:00:00,
2013-07-27 05:06:00,57.9,42.3,23.43,SE,135,0.0,2.0,56,0.00,,,0.00,meteohub,2013-07-27 11:06:00,
2013-07-27 05:11:00,57.9,42.3,23.43,SE,135,0.0,2.0,56,0.00,,,0.00,meteohub,2013-07-27 11:11:00,
2013-07-27 05:16:00,57.9,42.3,23.43,SE,135,1.0,1.0,56,0.00,,,0.00,meteohub,2013-07-27 11:16:00,
2013-07-27 05:21:00,57.9,42.3,23.42,SE,135,0.0,1.0,56,0.00,,,0.00,meteohub,2013-07-27 11:21:00,
2013-07-27 05:27:00,57.9,42.3,23.43,SE,135,1.0,1.0,56,0.00,,,0.00,meteohub,2013-07-27 11:27:00,
2013-07-27 05:32:00,57.9,42.3,23.43,SE,135,0.0,2.0,56,0.00,,,0.00,meteohub,2013-07-27 11:32:00,
2013-07-27 05:37:00,57.9,42.3,23.42,SE,135,0.0,2.0,56,0.00,,,0.00,meteohub,2013-07-27 11:37:00,
2013-07-27 05:42:00,57.9,42.3,23.42,SE,135,0.0,2.0,56,0.00,,,0.00,meteohub,2013-07-27 11:42:00,
2013-07-27 05:47:00,57.9,42.3,23.42,South,180,0.0,0.0,56,0.00,,,0.00,meteohub,2013-07-27 11:47:00,
2013-07-27 05:52:00,58.1,42.4,23.42,SE,135,2.0,0.0,56,0.00,,,0.00,meteohub,2013-07-27 11:52:00,
2013-07-27 05:57:00,58.5,42.8,23.42,SE,135,0.0,2.0,56,0.00,,,0.00,meteohub,2013-07-27 11:57:00,
2013-07-27 06:02:00,58.6,43.0,23.42,SE,135,0.0,2.0,56,0.00,,,0.00,meteohub,2013-07-27 12:02:00,
2013-07-27 06:07:00,59.0,42.8,23.42,West,270,0.0,2.0,55,0.00,,,0.00,meteohub,2013-07-27 12:07:00,
2013-07-27 06:12:00,59.2,43.0,23.42,SE,135,0.0,0.0,55,0.00,,,0.00,meteohub,2013-07-27 12:12:00,
2013-07-27 06:18:00,59.5,43.9,23.42,NW,315,0.0,0.0,56,0.00,,,0.00,meteohub,2013-07-27 12:18:00,
2013-07-27 06:23:00,59.7,44.1,23.42,South,180,0.0,0.0,56,0.00,,,0.00,meteohub,2013-07-27 12:23:00,
2013-07-27 06:28:00,59.9,43.7,23.42,South,180,0.0,0.0,55,0.00,,,0.00,meteohub,2013-07-27 12:28:00,
2013-07-27 06:33:00,59.9,44.2,23.42,South,180,0.0,0.0,56,0.00,,,0.00,meteohub,2013-07-27 12:33:00,
2013-07-27 06:38:00,60.1,44.4,23.42,South,180,0.0,0.0,56,0.00,,,0.00,meteohub,2013-07-27 12:38:00,
2013-07-27 06:43:00,60.1,43.9,23.42,South,180,0.0,0.0,55,0.00,,,0.00,meteohub,2013-07-27 12:43:00,
2013-07-27 06:48:00,60.1,44.4,23.42,South,180,0.0,0.0,56,0.00,,,0.00,meteohub,2013-07-27 12:48:00,
2013-07-27 06:54:00,60.3,44.4,23.42,South,180,0.0,0.0,56,0.00,,,0.00,meteohub,2013-07-27 12:54:00,
2013-07-27 06:59:00,60.3,45.0,23.42,SE,135,0.0,0.0,57,0.00,,,0.00,meteohub,2013-07-27 12:59:00,
2013-07-27 07:04:00,60.4,45.1,23.42,SE,135,0.0,1.0,57,0.00,,,0.00,meteohub,2013-07-27 13:04:00,
2013-07-27 07:09:00,60.6,45.7,23.42,SE,135,1.0,1.0,58,0.00,,,0.00,meteohub,2013-07-27 13:09:00,
2013-07-27 07:14:00,60.6,45.7,23.42,SE,135,0.0,1.0,58,0.00,,,0.00,meteohub,2013-07-27 13:14:00,
2013-07-27 07:20:00,60.6,46.2,23.42,South,180,0.0,1.0,59,0.00,,,0.00,meteohub,2013-07-27 13:20:00,
2013-07-27 07:25:00,60.8,46.4,23.42,South,180,0.0,1.0,59,0.00,,,0.00,meteohub,2013-07-27 13:25:00,
2013-07-27 07:30:00,61.0,46.6,23.42,South,180,0.0,0.0,59,0.00,,,0.00,meteohub,2013-07-27 13:30:00,
2013-07-27 07:35:00,61.2,46.2,23.42,South,180,0.0,0.0,58,0.00,,,0.00,meteohub,2013-07-27 13:35:00,
2013-07-27 07:40:00,61.5,48.0,23.42,SE,135,2.0,0.0,61,0.00,,,0.00,meteohub,2013-07-27 13:40:00,
2013-07-27 07:46:00,61.7,47.3,23.42,North,0,0.0,2.0,59,0.00,,,0.00,meteohub,2013-07-27 13:46:00,
2013-07-27 07:51:00,61.9,47.5,23.42,SE,135,2.0,2.0,59,0.00,,,0.00,meteohub,2013-07-27 13:51:00,
2013-07-27 07:56:00,62.1,46.6,23.42,SE,135,1.0,2.0,57,0.00,,,0.00,meteohub,2013-07-27 13:56:00,
2013-07-27 08:01:00,62.2,47.3,23.42,NE,45,1.0,2.0,58,0.00,,,0.00,meteohub,2013-07-27 14:01:00,
2013-07-27 08:07:00,62.2,47.3,23.42,NE,45,1.0,2.0,58,0.00,,,0.00,meteohub,2013-07-27 14:07:00,
2013-07-27 08:12:00,62.6,46.8,23.42,SSE,158,0.0,2.0,56,0.00,,,0.00,meteohub,2013-07-27 14:12:00,
2013-07-27 08:17:00,62.8,48.2,23.42,SE,135,0.0,1.0,59,0.00,,,0.00,meteohub,2013-07-27 14:17:00,
2013-07-27 08:22:00,63.0,47.5,23.42,SE,135,0.0,2.0,57,0.00,,,0.00,meteohub,2013-07-27 14:22:00,
2013-07-27 08:27:00,63.3,47.3,23.43,SE,135,1.0,2.0,56,0.00,,,0.00,meteohub,2013-07-27 14:27:00,
2013-07-27 08:32:00,63.7,48.2,23.42,East,90,1.0,2.0,57,0.00,,,0.00,meteohub,2013-07-27 14:32:00,
2013-07-27 08:38:00,64.2,48.7,23.43,SE,135,2.0,2.0,57,0.00,,,0.00,meteohub,2013-07-27 14:38:00,
2013-07-27 08:43:00,64.4,48.4,23.42,SE,135,2.0,2.0,56,0.00,,,0.00,meteohub,2013-07-27 14:43:00,
2013-07-27 08:48:00,64.8,49.1,23.42,SE,135,2.0,2.0,57,0.00,,,0.00,meteohub,2013-07-27 14:48:00,
2013-07-27 08:53:00,65.1,48.6,23.43,East,90,2.0,2.0,55,0.00,,,0.00,meteohub,2013-07-27 14:53:00,
2013-07-27 08:58:00,65.5,47.8,23.43,South,180,1.0,3.0,53,0.00,,,0.00,meteohub,2013-07-27 14:58:00,
2013-07-27 09:03:00,65.8,49.3,23.43,SE,135,2.0,3.0,55,0.00,,,0.00,meteohub,2013-07-27 15:03:00,
2013-07-27 09:08:00,66.4,49.3,23.43,SE,135,2.0,3.0,54,0.00,,,0.00,meteohub,2013-07-27 15:08:00,
2013-07-27 09:13:00,67.1,49.8,23.43,South,180,2.0,3.0,54,0.00,,,0.00,meteohub,2013-07-27 15:13:00,
2013-07-27 09:19:00,67.8,50.5,23.43,SE,135,0.0,3.0,54,0.00,,,0.00,meteohub,2013-07-27 15:19:00,
2013-07-27 09:24:00,68.4,50.0,23.44,South,180,0.0,3.0,52,0.00,,,0.00,meteohub,2013-07-27 15:24:00,
2013-07-27 09:29:00,68.9,50.0,23.43,North,0,0.0,2.0,51,0.00,,,0.00,meteohub,2013-07-27 15:29:00,
2013-07-27 09:34:00,69.3,50.4,23.44,SW,225,1.0,2.0,51,0.00,,,0.00,meteohub,2013-07-27 15:34:00,
2013-07-27 09:39:00,69.3,49.3,23.43,NE,45,0.0,2.0,49,0.00,,,0.00,meteohub,2013-07-27 15:39:00,
2013-07-27 09:44:00,69.3,49.3,23.43,SE,135,0.0,1.0,49,0.00,,,0.00,meteohub,2013-07-27 15:44:00,
2013-07-27 09:49:00,69.3,49.8,23.43,SE,135,2.0,2.0,50,0.00,,,0.00,meteohub,2013-07-27 15:49:00,
2013-07-27 09:54:00,69.1,50.7,23.43,SE,135,2.0,2.0,52,0.00,,,0.00,meteohub,2013-07-27 15:54:00,
2013-07-27 10:00:00,68.5,50.2,23.43,SE,135,2.0,2.0,52,0.00,,,0.00,meteohub,2013-07-27 16:00:00,
2013-07-27 10:05:00,68.5,50.2,23.44,SE,135,2.0,3.0,52,0.00,,,0.00,meteohub,2013-07-27 16:05:00,
2013-07-27 10:10:00,67.8,50.5,23.44,SE,135,1.0,3.0,54,0.00,,,0.00,meteohub,2013-07-27 16:10:00,
2013-07-27 10:15:00,67.5,50.2,23.44,SE,135,0.0,2.0,54,0.00,,,0.00,meteohub,2013-07-27 16:15:00,
2013-07-27 10:20:00,67.1,50.9,23.44,SE,135,1.0,2.0,56,0.00,,,0.00,meteohub,2013-07-27 16:20:00,
2013-07-27 10:25:00,66.6,51.3,23.44,SE,135,0.0,2.0,58,0.00,,,0.00,meteohub,2013-07-27 16:25:00,
2013-07-27 10:30:00,65.8,54.1,23.44,SE,135,0.0,2.0,66,0.00,,,0.00,meteohub,2013-07-27 16:30:00,
2013-07-27 10:35:00,65.5,54.3,23.43,SE,135,0.0,1.0,67,0.00,,,0.00,meteohub,2013-07-27 16:35:00,
2013-07-27 10:41:00,65.5,54.3,23.43,SE,135,0.0,0.0,67,0.00,,,0.00,meteohub,2013-07-27 16:41:00,
2013-07-27 10:46:00,65.8,53.8,23.44,NE,45,0.0,0.0,65,0.00,,,0.00,meteohub,2013-07-27 16:46:00,
2013-07-27 10:51:00,66.7,52.3,23.43,SE,135,0.0,0.0,60,0.00,,,0.00,meteohub,2013-07-27 16:51:00,
2013-07-27 10:56:00,68.7,52.9,23.43,East,90,1.0,2.0,57,0.00,,,0.00,meteohub,2013-07-27 16:56:00,
2013-07-27 11:02:00,70.7,52.2,23.43,North,0,2.0,2.0,52,0.00,,,0.00,meteohub,2013-07-27 17:02:00,
2013-07-27 11:07:00,70.5,52.0,23.43,North,0,1.0,2.0,52,0.00,,,0.00,meteohub,2013-07-27 17:07:00,
2013-07-27 11:12:00,70.7,52.2,23.43,North,0,0.0,2.0,52,0.00,,,0.00,meteohub,2013-07-27 17:12:00,
2013-07-27 11:17:00,70.9,51.8,23.43,East,90,2.0,2.0,51,0.00,,,0.00,meteohub,2013-07-27 17:17:00,
2013-07-27 11:22:00,71.4,52.9,23.42,SE,135,2.0,4.0,52,0.00,,,0.00,meteohub,2013-07-27 17:22:00,
2013-07-27 11:27:00,72.0,52.3,23.42,SE,135,2.0,4.0,50,0.00,,,0.00,meteohub,2013-07-27 17:27:00,
2013-07-27 11:32:00,72.1,53.1,23.42,East,90,2.0,4.0,51,0.00,,,0.00,meteohub,2013-07-27 17:32:00,
2013-07-27 11:37:00,72.7,50.7,23.42,South,180,2.0,3.0,46,0.00,,,0.00,meteohub,2013-07-27 17:37:00,
2013-07-27 11:42:00,72.7,52.3,23.42,South,180,2.0,2.0,49,0.00,,,0.00,meteohub,2013-07-27 17:42:00,
2013-07-27 11:48:00,72.5,52.3,23.42,North,0,1.0,2.0,49,0.00,,,0.00,meteohub,2013-07-27 17:48:00,
2013-07-27 11:53:00,72.1,52.0,23.42,North,0,2.0,2.0,49,0.00,,,0.00,meteohub,2013-07-27 17:53:00,
2013-07-27 11:58:00,72.0,52.3,23.42,North,0,2.0,2.0,50,0.00,,,0.00,meteohub,2013-07-27 17:58:00,
2013-07-27 12:03:00,72.0,52.9,23.42,NNW,338,2.0,2.0,51,0.00,,,0.00,meteohub,2013-07-27 18:03:00,
2013-07-27 12:08:00,73.0,53.2,23.42,NNW,338,2.0,2.0,50,0.00,,,0.00,meteohub,2013-07-27 18:08:00,
2013-07-27 12:13:00,73.8,52.9,23.41,South,180,3.0,3.0,48,0.00,,,0.00,meteohub,2013-07-27 18:13:00,
2013-07-27 12:18:00,74.7,53.6,23.42,North,0,3.0,4.0,48,0.00,,,0.00,meteohub,2013-07-27 18:18:00,
2013-07-27 12:24:00,74.8,53.2,23.42,North,0,2.0,4.0,47,0.00,,,0.00,meteohub,2013-07-27 18:24:00,
2013-07-27 12:29:00,73.9,51.8,23.41,SE,135,2.0,4.0,46,0.00,,,0.00,meteohub,2013-07-27 18:29:00,
2013-07-27 12:34:00,73.8,52.3,23.41,North,0,2.0,3.0,47,0.00,,,0.00,meteohub,2013-07-27 18:34:00,
2013-07-27 12:39:00,73.2,51.8,23.41,North,0,2.0,2.0,47,0.00,,,0.00,meteohub,2013-07-27 18:39:00,
2013-07-27 12:44:00,73.0,52.2,23.41,North,0,2.0,2.0,48,0.00,,,0.00,meteohub,2013-07-27 18:44:00,
2013-07-27 12:50:00,73.8,53.4,23.41,SE,135,2.0,2.0,49,0.00,,,0.00,meteohub,2013-07-27 18:50:00,
2013-07-27 12:55:00,73.8,52.9,23.41,NNW,338,2.0,2.0,48,0.00,,,0.00,meteohub,2013-07-27 18:55:00,
2013-07-27 13:00:00,73.4,53.1,23.40,North,0,2.0,2.0,49,0.00,,,0.00,meteohub,2013-07-27 19:00:00,
2013-07-27 13:05:00,72.9,53.6,23.40,North,0,2.0,3.0,51,0.00,,,0.00,meteohub,2013-07-27 19:05:00,
2013-07-27 13:11:00,72.5,54.0,23.41,North,0,2.0,3.0,52,0.00,,,0.00,meteohub,2013-07-27 19:11:00,
2013-07-27 13:16:00,72.5,54.0,23.40,North,0,3.0,3.0,52,0.00,,,0.00,meteohub,2013-07-27 19:16:00,
2013-07-27 13:22:00,71.6,53.1,23.40,North,0,2.0,3.0,52,0.00,,,0.00,meteohub,2013-07-27 19:22:00,
2013-07-27 13:27:00,70.9,53.4,23.40,North,0,2.0,3.0,54,0.00,,,0.00,meteohub,2013-07-27 19:27:00,
2013-07-27 13:32:00,70.5,53.6,23.40,North,0,2.0,3.0,55,0.00,,,0.00,meteohub,2013-07-27 19:32:00,
2013-07-27 13:37:00,69.8,52.9,23.40,North,0,2.0,2.0,55,0.00,,,0.00,meteohub,2013-07-27 19:37:00,
2013-07-27 13:42:00,69.8,53.4,23.40,North,0,2.0,2.0,56,0.00,,,0.00,meteohub,2013-07-27 19:42:00,
2013-07-27 13:48:00,69.8,53.4,23.40,North,0,2.0,3.0,56,0.00,,,0.00,meteohub,2013-07-27 19:48:00,
2013-07-27 13:53:00,70.3,54.0,23.39,North,0,4.0,4.0,56,0.00,,,0.00,meteohub,2013-07-27 19:53:00,
2013-07-27 13:54:00,70.3,53.4,23.39,North,0,2.0,3.0,55,0.00,,,0.00,meteohub,2013-07-27 19:54:00,
2013-07-27 13:59:00,70.7,53.8,23.39,North,0,2.0,4.0,55,0.00,,,0.00,meteohub,2013-07-27 19:59:00,
2013-07-27 14:05:00,70.7,53.8,23.39,North,0,2.0,4.0,55,0.00,,,0.00,meteohub,2013-07-27 20:05:00,
2013-07-27 14:10:00,71.6,53.1,23.39,North,0,2.0,2.0,52,0.00,,,0.00,meteohub,2013-07-27 20:10:00,
2013-07-27 14:15:00,71.2,53.8,23.39,North,0,2.0,2.0,54,0.00,,,0.00,meteohub,2013-07-27 20:15:00,
2013-07-27 14:20:00,71.4,54.5,23.39,North,0,2.0,3.0,55,0.00,,,0.00,meteohub,2013-07-27 20:20:00,
2013-07-27 14:26:00,71.6,54.1,23.38,NW,315,2.0,3.0,54,0.00,,,0.00,meteohub,2013-07-27 20:26:00,
2013-07-27 14:31:00,72.0,54.0,23.38,North,0,1.0,3.0,53,0.00,,,0.00,meteohub,2013-07-27 20:31:00,
2013-07-27 14:36:00,72.5,54.0,23.38,NNW,338,4.0,4.0,52,0.00,,,0.00,meteohub,2013-07-27 20:36:00,
2013-07-27 14:41:00,72.5,54.3,23.38,North,0,2.0,4.0,53,0.00,,,0.00,meteohub,2013-07-27 20:41:00,
2013-07-27 14:47:00,72.7,54.0,23.38,North,0,2.0,4.0,52,0.00,,,0.00,meteohub,2013-07-27 20:47:00,
2013-07-27 14:52:00,72.7,54.0,23.38,South,180,3.0,4.0,52,0.00,,,0.00,meteohub,2013-07-27 20:52:00,
2013-07-27 14:57:00,72.0,54.0,23.38,NNW,338,3.0,3.0,53,0.00,,,0.00,meteohub,2013-07-27 20:57:00,
2013-07-27 15:02:00,70.9,52.9,23.38,North,0,1.0,3.0,53,0.00,,,0.00,meteohub,2013-07-27 21:02:00,
2013-07-27 15:07:00,70.0,53.6,23.38,North,0,1.0,3.0,56,0.00,,,0.00,meteohub,2013-07-27 21:07:00,
2013-07-27 15:13:00,69.8,54.0,23.37,North,0,2.0,3.0,57,0.00,,,0.00,meteohub,2013-07-27 21:13:00,
2013-07-27 15:17:00,69.8,54.3,23.38,NNW,338,2.0,2.0,58,0.00,,,0.00,meteohub,2013-07-27 21:17:00,
2013-07-27 15:23:00,70.2,54.1,23.38,North,0,3.0,3.0,57,0.00,,,0.00,meteohub,2013-07-27 21:23:00,
2013-07-27 15:28:00,69.8,54.0,23.37,North,0,3.0,3.0,57,0.00,,,0.00,meteohub,2013-07-27 21:28:00,
2013-07-27 15:33:00,69.4,54.0,23.38,North,0,2.0,3.0,58,0.00,,,0.00,meteohub,2013-07-27 21:33:00,
2013-07-27 15:39:00,68.9,54.0,23.38,North,0,2.0,3.0,59,0.00,,,0.00,meteohub,2013-07-27 21:39:00,
2013-07-27 15:44:00,68.2,54.1,23.38,North,0,3.0,3.0,61,0.00,,,0.00,meteohub,2013-07-27 21:44:00,
2013-07-27 15:49:00,67.5,54.5,23.38,North,0,2.0,4.0,63,0.00,,,0.00,meteohub,2013-07-27 21:49:00,
2013-07-27 15:54:00,67.5,54.5,23.38,North,0,3.0,4.0,63,0.00,,,0.00,meteohub,2013-07-27 21:54:00,
2013-07-27 15:59:00,67.1,53.2,23.37,North,0,2.0,4.0,61,0.00,,,0.00,meteohub,2013-07-27 21:59:00,
2013-07-27 16:05:00,67.1,53.2,23.37,North,0,2.0,3.0,61,0.00,,,0.00,meteohub,2013-07-27 22:05:00,
2013-07-27 16:10:00,66.4,53.4,23.37,North,0,1.0,3.0,63,0.00,,,0.00,meteohub,2013-07-27 22:10:00,
2013-07-27 16:15:00,66.0,54.3,23.37,North,0,2.0,2.0,66,0.00,,,0.00,meteohub,2013-07-27 22:15:00,
2013-07-27 16:20:00,65.7,54.3,23.37,North,0,2.0,3.0,67,0.00,,,0.00,meteohub,2013-07-27 22:20:00,
2013-07-27 16:25:00,65.3,54.1,23.37,North,0,2.0,3.0,67,0.00,,,0.00,meteohub,2013-07-27 22:25:00,
2013-07-27 16:30:00,64.9,54.1,23.37,NE,45,2.0,3.0,68,0.00,,,0.00,meteohub,2013-07-27 22:30:00,
2013-07-27 16:36:00,64.8,54.3,23.37,South,180,1.0,2.0,69,0.00,,,0.00,meteohub,2013-07-27 22:36:00,
2013-07-27 16:37:00,64.8,54.7,23.37,NW,315,2.0,2.0,70,0.00,,,0.00,meteohub,2013-07-27 22:37:00,
2013-07-27 16:42:00,64.4,54.9,23.36,North,0,2.0,2.0,71,0.00,,,0.00,meteohub,2013-07-27 22:42:00,
2013-07-27 16:47:00,64.0,54.9,23.37,North,0,2.0,2.0,72,0.00,,,0.00,meteohub,2013-07-27 22:47:00,
2013-07-27 16:52:00,63.7,55.2,23.36,North,0,2.0,2.0,74,0.00,,,0.00,meteohub,2013-07-27 22:52:00,
2013-07-27 16:57:00,63.1,54.7,23.36,NE,45,2.0,2.0,74,0.00,,,0.00,meteohub,2013-07-27 22:57:00,
2013-07-27 17:03:00,63.5,55.0,23.36,North,0,2.0,2.0,74,0.00,,,0.00,meteohub,2013-07-27 23:03:00,
2013-07-27 17:08:00,63.5,55.0,23.36,North,0,2.0,2.0,74,0.00,,,0.00,meteohub,2013-07-27 23:08:00,
2013-07-27 17:13:00,63.5,55.0,23.36,North,0,2.0,3.0,74,0.00,,,0.00,meteohub,2013-07-27 23:13:00,
2013-07-27 17:18:00,64.0,55.6,23.36,North,0,1.0,3.0,74,0.00,,,0.00,meteohub,2013-07-27 23:18:00,
2013-07-27 17:24:00,64.0,55.2,23.36,North,0,1.0,3.0,73,0.00,,,0.00,meteohub,2013-07-27 23:24:00,
2013-07-27 17:29:00,64.4,55.2,23.35,North,0,1.0,2.0,72,0.00,,,0.00,meteohub,2013-07-27 23:29:00,
2013-07-27 17:34:00,64.6,54.5,23.36,North,0,2.0,3.0,70,0.00,,,0.00,meteohub,2013-07-27 23:34:00,
2013-07-27 17:40:00,64.8,54.3,23.35,North,0,2.0,3.0,69,0.00,,,0.00,meteohub,2013-07-27 23:40:00,
2013-07-27 17:45:00,64.8,54.3,23.35,North,0,0.0,2.0,69,0.00,,,0.00,meteohub,2013-07-27 23:45:00,
2013-07-27 17:50:00,64.9,54.9,23.35,North,0,2.0,2.0,70,0.00,,,0.00,meteohub,2013-07-27 23:50:00,
2013-07-27 17:56:00,64.8,54.7,23.34,North,0,1.0,2.0,70,0.00,,,0.00,meteohub,2013-07-27 23:56:00,
2013-07-27 18:01:00,64.8,54.7,23.34,North,0,2.0,2.0,70,0.00,,,0.00,meteohub,2013-07-28 00:01:00,
2013-07-27 18:06:00,64.8,54.7,23.34,North,0,2.0,2.0,70,0.00,,,0.00,meteohub,2013-07-28 00:06:00,
2013-07-27 18:11:00,64.0,54.5,23.34,North,0,2.0,2.0,71,0.00,,,0.00,meteohub,2013-07-28 00:11:00,
2013-07-27 18:16:00,63.9,54.3,23.34,North,0,1.0,2.0,71,0.00,,,0.00,meteohub,2013-07-28 00:16:00,
2013-07-27 18:21:00,63.9,54.3,23.34,North,0,2.0,2.0,71,0.00,,,0.00,meteohub,2013-07-28 00:21:00,
2013-07-27 18:27:00,63.9,54.3,23.34,North,0,1.0,2.0,71,0.00,,,0.00,meteohub,2013-07-28 00:27:00,
2013-07-27 18:32:00,64.0,54.9,23.34,North,0,2.0,2.0,72,0.00,,,0.00,meteohub,2013-07-28 00:32:00,
2013-07-27 18:37:00,64.0,54.9,23.34,SE,135,0.0,2.0,72,0.00,,,0.00,meteohub,2013-07-28 00:37:00,
2013-07-27 18:42:00,64.2,55.0,23.33,North,0,0.0,2.0,72,0.00,,,0.00,meteohub,2013-07-28 00:42:00,
2013-07-27 18:47:00,64.2,55.0,23.33,NE,45,0.0,2.0,72,0.00,,,0.00,meteohub,2013-07-28 00:47:00,
2013-07-27 18:52:00,64.0,54.9,23.34,NW,315,0.0,2.0,72,0.00,,,0.00,meteohub,2013-07-28 00:52:00,
2013-07-27 18:58:00,63.9,54.3,23.33,North,0,1.0,2.0,71,0.00,,,0.00,meteohub,2013-07-28 00:58:00,
2013-07-27 19:03:00,63.9,54.3,23.34,North,0,1.0,2.0,71,0.00,,,0.00,meteohub,2013-07-28 01:03:00,
2013-07-27 19:08:00,63.9,54.3,23.33,North,0,0.0,2.0,71,0.00,,,0.00,meteohub,2013-07-28 01:08:00,
2013-07-27 19:13:00,63.9,54.3,23.33,North,0,0.0,2.0,71,0.00,,,0.00,meteohub,2013-07-28 01:13:00,
2013-07-27 19:18:00,63.9,54.3,23.33,North,0,1.0,2.0,71,0.00,,,0.00,meteohub,2013-07-28 01:18:00,
2013-07-27 19:23:00,63.7,54.1,23.33,North,0,0.0,2.0,71,0.00,,,0.00,meteohub,2013-07-28 01:23:00,
2013-07-27 19:29:00,63.7,54.5,23.33,North,0,0.0,1.0,72,0.00,,,0.00,meteohub,2013-07-28 01:29:00,
2013-07-27 19:34:00,63.7,54.1,23.33,SE,135,0.0,1.0,71,0.00,,,0.00,meteohub,2013-07-28 01:34:00,
2013-07-27 19:39:00,63.5,54.3,23.33,SE,135,0.0,0.0,72,0.00,,,0.00,meteohub,2013-07-28 01:39:00,
2013-07-27 19:45:00,63.3,54.1,23.32,SE,135,0.0,0.0,72,0.00,,,0.00,meteohub,2013-07-28 01:45:00,
2013-07-27 19:50:00,63.1,54.0,23.32,SE,135,0.0,0.0,72,0.00,,,0.00,meteohub,2013-07-28 01:50:00,
2013-07-27 19:55:00,63.0,54.1,23.32,SE,135,1.0,1.0,73,0.00,,,0.00,meteohub,2013-07-28 01:55:00,
2013-07-27 20:00:00,62.8,54.0,23.32,SE,135,0.0,2.0,73,0.00,,,0.00,meteohub,2013-07-28 02:00:00,
2013-07-27 20:06:00,62.8,54.0,23.32,SE,135,0.0,2.0,73,0.00,,,0.00,meteohub,2013-07-28 02:06:00,
2013-07-27 20:11:00,62.4,53.6,23.32,SE,135,1.0,2.0,73,0.00,,,0.00,meteohub,2013-07-28 02:11:00,
2013-07-27 20:17:00,62.2,53.8,23.32,SE,135,2.0,2.0,74,0.00,,,0.00,meteohub,2013-07-28 02:17:00,
2013-07-27 20:22:00,62.2,53.8,23.32,East,90,2.0,4.0,74,0.00,,,0.00,meteohub,2013-07-28 02:22:00,
2013-07-27 20:27:00,62.2,53.8,23.32,SE,135,1.0,4.0,74,0.00,,,0.00,meteohub,2013-07-28 02:27:00,
2013-07-27 20:32:00,62.2,53.8,23.32,South,180,0.0,4.0,74,0.00,,,0.00,meteohub,2013-07-28 02:32:00,
2013-07-27 20:37:00,62.1,53.6,23.32,South,180,0.0,3.0,74,0.00,,,0.00,meteohub,2013-07-28 02:37:00,
2013-07-27 20:42:00,61.9,53.4,23.33,South,180,0.0,2.0,74,0.00,,,0.00,meteohub,2013-07-28 02:42:00,
2013-07-27 20:48:00,61.7,53.8,23.32,North,0,0.0,1.0,75,0.00,,,0.00,meteohub,2013-07-28 02:48:00,
2013-07-27 20:53:00,61.7,53.8,23.32,North,0,0.0,1.0,75,0.00,,,0.00,meteohub,2013-07-28 02:53:00,
2013-07-27 20:58:00,61.7,53.8,23.32,North,0,0.0,1.0,75,0.00,,,0.00,meteohub,2013-07-28 02:58:00,
2013-07-27 21:03:00,61.7,53.8,23.32,North,0,0.0,1.0,75,0.00,,,0.00,meteohub,2013-07-28 03:03:00,
2013-07-27 21:08:00,61.5,54.0,23.32,North,0,0.0,0.0,76,0.00,,,0.00,meteohub,2013-07-28 03:08:00,
2013-07-27 21:13:00,61.2,53.6,23.33,South,180,0.0,0.0,76,0.00,,,0.00,meteohub,2013-07-28 03:13:00,
2013-07-27 21:19:00,60.8,53.2,23.32,South,180,0.0,0.0,76,0.00,,,0.00,meteohub,2013-07-28 03:19:00,
2013-07-27 21:24:00,60.6,53.8,23.32,South,180,0.0,0.0,78,0.00,,,0.00,meteohub,2013-07-28 03:24:00,
2013-07-27 21:29:00,60.3,53.4,23.32,South,180,0.0,0.0,78,0.00,,,0.00,meteohub,2013-07-28 03:29:00,
2013-07-27 21:34:00,60.3,53.4,23.33,South,180,0.0,1.0,78,0.00,,,0.00,meteohub,2013-07-28 03:34:00,
2013-07-27 21:39:00,60.1,53.2,23.33,North,0,0.0,1.0,78,0.00,,,0.00,meteohub,2013-07-28 03:39:00,
2013-07-27 21:45:00,59.7,52.9,23.32,North,0,0.0,1.0,78,0.00,,,0.00,meteohub,2013-07-28 03:45:00,
2013-07-27 21:50:00,59.4,52.5,23.32,North,0,0.0,0.0,78,0.00,,,0.00,meteohub,2013-07-28 03:50:00,
2013-07-27 21:55:00,58.8,52.3,23.33,North,0,0.0,0.0,79,0.00,,,0.00,meteohub,2013-07-28 03:55:00,
2013-07-27 22:00:00,58.6,52.5,23.33,WNW,293,1.0,2.0,80,0.00,,,0.00,meteohub,2013-07-28 04:00:00,
2013-07-27 22:01:00,58.6,52.5,23.33,WNW,293,1.0,2.0,80,0.00,,,0.00,meteohub,2013-07-28 04:01:00,
2013-07-27 22:02:00,58.6,52.5,23.33,WNW,293,1.0,2.0,80,0.00,,,0.00,meteohub,2013-07-28 04:02:00,
2013-07-27 22:03:00,58.6,52.5,23.33,WNW,293,1.0,2.0,80,0.00,,,0.00,meteohub,2013-07-28 04:03:00,
2013-07-27 22:09:00,58.1,52.3,23.33,SE,135,0.0,2.0,81,0.00,,,0.00,meteohub,2013-07-28 04:09:00,
2013-07-27 22:14:00,57.9,52.2,23.33,South,180,1.0,2.0,81,0.00,,,0.00,meteohub,2013-07-28 04:14:00,
2013-07-27 22:19:00,57.7,52.0,23.33,South,180,0.0,1.0,81,0.00,,,0.00,meteohub,2013-07-28 04:19:00,
2013-07-27 22:24:00,57.6,52.2,23.33,South,180,0.0,1.0,82,0.00,,,0.00,meteohub,2013-07-28 04:24:00,
2013-07-27 22:29:00,57.6,52.2,23.33,NE,45,0.0,1.0,82,0.00,,,0.00,meteohub,2013-07-28 04:29:00,
2013-07-27 22:35:00,57.7,52.3,23.33,East,90,0.0,1.0,82,0.00,,,0.00,meteohub,2013-07-28 04:35:00,
2013-07-27 22:40:00,57.7,52.3,23.33,North,0,0.0,1.0,82,0.00,,,0.00,meteohub,2013-07-28 04:40:00,
2013-07-27 22:45:00,58.1,52.3,23.33,SE,135,0.0,2.0,81,0.00,,,0.00,meteohub,2013-07-28 04:45:00,
2013-07-27 22:51:00,58.3,52.2,23.33,SE,135,0.0,2.0,80,0.00,,,0.00,meteohub,2013-07-28 04:51:00,
2013-07-27 22:56:00,58.5,52.7,23.32,North,0,1.0,1.0,81,0.00,,,0.00,meteohub,2013-07-28 04:56:00,
2013-07-27 23:01:00,58.3,53.1,23.33,East,90,0.0,2.0,83,0.00,,,0.00,meteohub,2013-07-28 05:01:00,
2013-07-27 23:06:00,58.1,52.9,23.32,South,180,0.0,2.0,83,0.00,,,0.00,meteohub,2013-07-28 05:06:00,
2013-07-27 23:11:00,57.9,52.7,23.33,SE,135,1.0,2.0,83,0.00,,,0.00,meteohub,2013-07-28 05:11:00,
2013-07-27 23:17:00,57.7,52.9,23.33,SE,135,0.0,2.0,84,0.00,,,0.00,meteohub,2013-07-28 05:17:00,
2013-07-27 23:22:00,57.7,52.7,23.33,South,180,0.0,2.0,83,0.00,,,0.00,meteohub,2013-07-28 05:22:00,
2013-07-27 23:27:00,57.6,52.5,23.33,South,180,0.0,2.0,83,0.00,,,0.00,meteohub,2013-07-28 05:27:00,
2013-07-27 23:32:00,57.4,52.3,23.33,South,180,0.0,1.0,83,0.00,,,0.00,meteohub,2013-07-28 05:32:00,
2013-07-27 23:37:00,57.2,52.2,23.33,South,180,1.0,0.0,83,0.00,,,0.00,meteohub,2013-07-28 05:37:00,
2013-07-27 23:43:00,56.8,51.8,23.33,South,180,0.0,1.0,83,0.00,,,0.00,meteohub,2013-07-28 05:43:00,
2013-07-27 23:48:00,56.5,51.4,23.33,South,180,0.0,1.0,83,0.00,,,0.00,meteohub,2013-07-28 05:48:00,
2013-07-27 23:53:00,56.3,51.3,23.33,South,180,0.0,1.0,83,0.00,,,0.00,meteohub,2013-07-28 05:53:00,
2013-07-27 23:58:00,55.8,50.7,23.32,South,180,0.0,0.0,83,0.00,,,0.00,meteohub,2013-07-28 05:58:00,